When you browse on this site, cookies collect data to enhance your experience and personalize the content and advertising you see.
Visit our Privacy Policy to learn more. By continuing to use the site, you agree to this use of cookies and data.
  • In Hungary
  • List of Countries
  • For 7 days
  • Water Temperature
  • Weather Map
  • News
  • Weather Widgets
  • user-avatar
    Login

    Hourly Weather Koty

    Today, 20 September, Friday

    Time Temperature Precipitation Wind Pressure Humidity
    00:00 +6°C° 0 mm 2 mps 748 mmHg 83%
    01:00 +6°C° 0 mm 2 mps 748 mmHg 84%
    02:00 +6°C° 0 mm 2 mps 748 mmHg 85%
    03:00 +5°C° 0 mm 2 mps 748 mmHg 86%
    04:00 +5°C° 0 mm 2 mps 747 mmHg 87%
    05:00 +6°C° 0 mm 2 mps 747 mmHg 85%
    06:00 +6°C° 0 mm 2 mps 747 mmHg 83%
    07:00 +7°C° 0 mm 3 mps 747 mmHg 81%
    08:00 +8°C° 0 mm 3 mps 748 mmHg 74%
    09:00 +10°C° 0 mm 3 mps 748 mmHg 67%
    10:00 +12°C° 0 mm 3 mps 748 mmHg 60%
    11:00 +13°C° 0 mm 4 mps 748 mmHg 55%
    12:00 +14°C° 0 mm 4 mps 747 mmHg 50%
    13:00 +14°C° 0 mm 4 mps 747 mmHg 45%
    14:00 +14°C° 0 mm 4 mps 747 mmHg 47%
    15:00 +14°C° 0 mm 3 mps 746 mmHg 49%
    16:00 +14°C° 0 mm 3 mps 746 mmHg 51%
    17:00 +12°C° 0 mm 3 mps 746 mmHg 56%
    18:00 +12°C° 0 mm 2 mps 746 mmHg 62%
    19:00 +11°C° 0 mm 1 mps 747 mmHg 67%
    20:00 +9°C° 0 mm 2 mps 747 mmHg 69%
    21:00 +9°C° 0 mm 2 mps 747 mmHg 72%
    22:00 +9°C° 0 mm 2 mps 747 mmHg 74%
    23:00 +8°C° 0 mm 2 mps 747 mmHg 77%

    Tomorrow, 21 September, Saturday

    Time Temperature Precipitation Wind Pressure Humidity
    00:00 +8°C° 0 mm 2 mps 747 mmHg 79%
    01:00 +8°C° 0 mm 2 mps 747 mmHg 82%
    02:00 +7°C° 0 mm 2 mps 747 mmHg 83%
    03:00 +7°C° 0 mm 2 mps 746 mmHg 84%
    04:00 +7°C° 0 mm 2 mps 746 mmHg 85%
    05:00 +8°C° 0 mm 2 mps 746 mmHg 81%
    06:00 +8°C° 0 mm 2 mps 746 mmHg 78%
    07:00 +9°C° 0 mm 2 mps 746 mmHg 75%
    08:00 +12°C° 0 mm 2 mps 746 mmHg 67%
    09:00 +14°C° 0 mm 2 mps 746 mmHg 60%
    10:00 +16°C° 0 mm 3 mps 746 mmHg 53%
    11:00 +17°C° 0 mm 3 mps 746 mmHg 51%
    12:00 +18°C° 0 mm 3 mps 745 mmHg 48%
    13:00 +19°C° 0 mm 3 mps 745 mmHg 46%
    14:00 +19°C° 0 mm 2 mps 745 mmHg 47%
    15:00 +19°C° 0 mm 2 mps 745 mmHg 47%
    16:00 +19°C° 0 mm 2 mps 744 mmHg 48%
    17:00 +17°C° 0 mm 2 mps 744 mmHg 54%
    18:00 +16°C° 0 mm 1 mps 744 mmHg 59%
    19:00 +14°C° 0 mm 1 mps 744 mmHg 65%
    20:00 +13°C° 0 mm 1 mps 744 mmHg 66%
    21:00 +13°C° 0 mm 1 mps 744 mmHg 67%
    22:00 +13°C° 0 mm 1 mps 744 mmHg 68%
    23:00 +12°C° 0 mm 2 mps 744 mmHg 69%

    Day after tomorrow, 22 September, Sunday

    Time Temperature Precipitation Wind Pressure Humidity
    00:00 +12°C° 0 mm 2 mps 744 mmHg 69%
    01:00 +10°C° 0 mm 2 mps 744 mmHg 70%
    02:00 +10°C° 0 mm 2 mps 744 mmHg 70%
    03:00 +10°C° 0 mm 2 mps 743 mmHg 71%
    04:00 +10°C° 0 mm 2 mps 743 mmHg 71%
    05:00 +10°C° 0 mm 2 mps 743 mmHg 69%
    06:00 +12°C° 0 mm 2 mps 743 mmHg 67%
    07:00 +12°C° 0 mm 2 mps 743 mmHg 65%
    08:00 +15°C° 0 mm 2 mps 743 mmHg 57%
    09:00 +17°C° 0 mm 2 mps 743 mmHg 49%
    10:00 +19°C° 0 mm 2 mps 742 mmHg 41%
    11:00 +20°C° 0 mm 2 mps 742 mmHg 39%
    12:00 +21°C° 0 mm 2 mps 742 mmHg 37%
    13:00 +23°C° 0 mm 2 mps 741 mmHg 34%
    14:00 +23°C° 0 mm 2 mps 741 mmHg 37%
    15:00 +21°C° 0 mm 2 mps 740 mmHg 39%
    16:00 +22°C° 0 mm 1 mps 740 mmHg 41%
    17:00 +20°C° 0 mm 2 mps 740 mmHg 47%
    18:00 +18°C° 0 mm 2 mps 740 mmHg 53%
    19:00 +16°C° 0 mm 2 mps 739 mmHg 60%
    20:00 +15°C° 0 mm 2 mps 739 mmHg 62%
    21:00 +15°C° 0 mm 2 mps 739 mmHg 64%
    22:00 +14°C° 0 mm 2 mps 739 mmHg 66%
    23:00 +14°C° 0 mm 2 mps 738 mmHg 67%

    23 September, Monday

    Time Temperature Precipitation Wind Pressure Humidity
    00:00 +14°C° 0 mm 2 mps 738 mmHg 67%
    01:00 +13°C° 0 mm 3 mps 737 mmHg 67%
    02:00 +13°C° 0 mm 3 mps 737 mmHg 65%
    03:00 +14°C° 0 mm 3 mps 737 mmHg 62%
    04:00 +14°C° 0 mm 3 mps 736 mmHg 60%
    05:00 +16°C° 0 mm 3 mps 736 mmHg 58%
    06:00 +16°C° 0 mm 3 mps 735 mmHg 57%
    07:00 +16°C° 0 mm 3 mps 735 mmHg 56%
    08:00 +16°C° 0 mm 3 mps 735 mmHg 57%
    09:00 +16°C° 0 mm 3 mps 735 mmHg 59%
    10:00 +17°C° 0 mm 3 mps 735 mmHg 61%
    11:00 +17°C° 0 mm 2 mps 735 mmHg 60%
    12:00 +17°C° 0 mm 2 mps 735 mmHg 59%
    13:00 +19°C° 0 mm 1 mps 735 mmHg 58%
    14:00 +19°C° 0 mm 1 mps 734 mmHg 59%
    15:00 +19°C° 0 mm 1 mps 734 mmHg 59%
    16:00 +19°C° 0 mm 1 mps 734 mmHg 59%
    17:00 +19°C° 0 mm 1 mps 734 mmHg 62%
    18:00 +18°C° 0 mm 1 mps 734 mmHg 64%
    19:00 +16°C° 0 mm 1 mps 735 mmHg 66%
    20:00 +16°C° 0 mm 1 mps 735 mmHg 69%
    21:00 +15°C° 0 mm 1 mps 735 mmHg 71%
    22:00 +15°C° 0 mm 1 mps 735 mmHg 73%
    23:00 +15°C° 0 mm 1 mps 735 mmHg 74%

    24 September, Tuesday

    Time Temperature Precipitation Wind Pressure Humidity
    00:00 +15°C° 0 mm 1 mps 735 mmHg 75%
    01:00 +15°C° 0 mm 1 mps 735 mmHg 76%
    02:00 +15°C° 0 mm 1 mps 735 mmHg 77%
    03:00 +14°C° 0 mm 1 mps 735 mmHg 78%
    04:00 +14°C° 0 mm 1 mps 736 mmHg 79%
    05:00 +14°C° 0 mm 1 mps 736 mmHg 79%
    06:00 +14°C° 0 mm 2 mps 736 mmHg 80%
    07:00 +14°C° 0 mm 2 mps 736 mmHg 80%
    08:00 +15°C° 0 mm 2 mps 737 mmHg 75%
    09:00 +16°C° 0 mm 2 mps 737 mmHg 70%
    10:00 +18°C° 0 mm 2 mps 738 mmHg 65%
    11:00 +18°C° 0 mm 2 mps 737 mmHg 63%
    12:00 +19°C° 0 mm 3 mps 737 mmHg 62%
    13:00 +19°C° 0 mm 3 mps 737 mmHg 61%
    14:00 +19°C° 0 mm 2 mps 737 mmHg 63%
    15:00 +19°C° 0 mm 2 mps 737 mmHg 65%
    16:00 +18°C° 0 mm 2 mps 737 mmHg 67%
    17:00 +19°C° 0 mm 1 mps 737 mmHg 69%
    18:00 +18°C° 0 mm 1 mps 738 mmHg 71%
    19:00 +16°C° 0 mm 0 mps 738 mmHg 73%
    20:00 +15°C° 0 mm 0 mps 738 mmHg 75%
    21:00 +16°C° 0 mm 1 mps 738 mmHg 77%
    22:00 +16°C° 0 mm 1 mps 738 mmHg 78%
    23:00 +15°C° 0 mm 1 mps 738 mmHg 80%

    25 September, Wednesday

    Time Temperature Precipitation Wind Pressure Humidity
    00:00 +15°C° 0 mm 1 mps 738 mmHg 82%
    01:00 +14°C° 0 mm 1 mps 737 mmHg 84%
    02:00 +14°C° 0 mm 1 mps 737 mmHg 86%
    03:00 +13°C° 0 mm 1 mps 737 mmHg 88%
    04:00 +13°C° 0 mm 1 mps 737 mmHg 90%
    05:00 +13°C° 0 mm 1 mps 737 mmHg 88%
    06:00 +14°C° 0 mm 1 mps 737 mmHg 86%
    07:00 +14°C° 0 mm 2 mps 736 mmHg 84%
    08:00 +15°C° 0 mm 2 mps 736 mmHg 76%
    09:00 +17°C° 0 mm 2 mps 736 mmHg 68%
    10:00 +19°C° 0 mm 3 mps 736 mmHg 60%
    11:00 +20°C° 0 mm 3 mps 736 mmHg 58%
    12:00 +20°C° 0 mm 3 mps 736 mmHg 55%
    13:00 +21°C° 0 mm 4 mps 735 mmHg 52%
    14:00 +21°C° 0 mm 3 mps 735 mmHg 53%
    15:00 +21°C° 0 mm 3 mps 735 mmHg 54%
    16:00 +21°C° 0 mm 3 mps 734 mmHg 55%
    17:00 +20°C° 0 mm 3 mps 734 mmHg 58%
    18:00 +19°C° 0 mm 3 mps 734 mmHg 61%
    19:00 +18°C° 0 mm 3 mps 734 mmHg 64%
    20:00 +17°C° 0.2 mm 3 mps 734 mmHg 69%
    21:00 +17°C° 0.2 mm 3 mps 734 mmHg 74%
    22:00 +16°C° 0.2 mm 3 mps 734 mmHg 79%
    23:00 +16°C° 0.2 mm 3 mps 734 mmHg 82%
    Show more